This is the latest recevied weather packets stored in our database for station/object KC5CAM-13. If no packets are shown the sender has not sent any weather packets the latest 10 day(s).
| Time | Temp. | Humidity | Pressure | Rain* | Wind** | Luminosity | Snow |
|---|---|---|---|---|---|---|---|
| 1777209360 | 22.78° C | 92% | 1009.1 hPa | 0 mm | - | 39 W/m² | - |
| 1777209056 | 22.78° C | 92% | 1009.2 hPa | 0 mm | - | 12 W/m² | - |
| 1777208752 | 22.78° C | 92% | 1009.2 hPa | 0 mm | - | 14 W/m² | - |
| 1777208449 | 22.78° C | 92% | 1009.1 hPa | 0 mm | - | 14 W/m² | - |
| 1777208146 | 22.78° C | 92% | 1008.9 hPa | 0 mm | - | 12 W/m² | - |
| 1777207847 | 22.78° C | 92% | 1008.9 hPa | 0 mm | - | 6 W/m² | - |
| 1777207547 | 22.78° C | 92% | 1008.9 hPa | 0 mm | - | 7 W/m² | - |
| 1777207243 | 22.78° C | 92% | 1008.9 hPa | 0 mm | - | 5 W/m² | - |
| 1777206937 | 22.78° C | 92% | 1008.5 hPa | 0 mm | - | 7 W/m² | - |
| 1777206632 | 22.78° C | 92% | 1008.3 hPa | 0 mm | - | 9 W/m² | - |
| 1777206328 | 22.78° C | 92% | 1008.1 hPa | 0 mm | - | 8 W/m² | - |
| 1777206023 | 22.78° C | 92% | 1008.3 hPa | 0 mm | - | 8 W/m² | - |
| 1777205720 | 22.78° C | 92% | 1008.2 hPa | 0 mm | - | 6 W/m² | - |
| 1777205417 | 22.78° C | 92% | 1008.1 hPa | 0 mm | - | 3 W/m² | - |
| 1777205112 | 22.78° C | 92% | 1008.1 hPa | 0 mm | - | 1 W/m² | - |
| 1777204809 | 22.22° C | 92% | 1008 hPa | 0 mm | - | 0 W/m² | - |
| 1777204504 | 22.22° C | 92% | 1007.9 hPa | 0 mm | - | 0 W/m² | - |
| 1777204200 | 22.22° C | 92% | 1007.9 hPa | 0 mm | - | 0 W/m² | - |
| 1777203895 | 22.22° C | 92% | 1007.7 hPa | 0 mm | - | 0 W/m² | - |
| 1777203590 | 22.22° C | 92% | 1007.6 hPa | 0 mm | - | 0 W/m² | - |
| 1777203286 | 22.22° C | 91% | 1007.4 hPa | 0 mm | - | 0 W/m² | - |
| 1777202983 | 21.67° C | 91% | 1007.5 hPa | 0 mm | - | 0 W/m² | - |
| 1777202679 | 21.67° C | 91% | 1007.6 hPa | 0 mm | - | 0 W/m² | - |
| 1777202372 | 21.67° C | 90% | 1007.5 hPa | 0 mm | - | 0 W/m² | - |
| 1777202072 | 21.67° C | 90% | 1007.5 hPa | 0 mm | - | 0 W/m² | - |
* Rain latest hour (hover to see other rain measurements)
** Current wind speed in m/s (hover to see current wind gust speed)